RADUGA 4 [-]

Last updated on Aug. 12, 2020, 5:32 a.m. UTC

1 10987U 78073A   20224.83835619  .00000102  00000-0  00000-0 0  9996
2 10987   9.9991 305.0240 0009826 342.8362  26.4657  1.00331465 98191
UTC
Height (km)
Latitude
Longitude
Inclination
Orbital Period
UTC large
Height (km)
Speed (km/s)
/
Latitude / Longitude
Inclination (degrees)
Orbital Period (minutes)
Azimuth
Elevation
Range (km)
Doppler Factor
iOS Compass Heading
iOS Angle

Next 30 passes for location: Hong Kong

Rise time Rise Azimuth (degrees) Set time Set Azimuth (degrees) Duration Max altitude (degrees)

No matching passes for this satellites